SDM1920 UUEE-URSS

Flight info

Callsign SDM1920
Flight time 2h 25m
Altitude 37000
Route TOGMO3H TOGMO M56 ABAGI B105 NATIT DCT MOLED DCT LIDUS G242 ZG DCT ITAKA DCT OBBUD DCT AMKOL DCT GOTIK DCT MEMZA DCT VENFO DCT BINOL BINOL1K
Aircraft B77W/H-SDE1E2E3FGHIJ2J3J4J5M1RWXY/LB1D1

Departure

Time 2026-05-07 12:21
Airport Sheremetyevo International Airport (UUEE)

Arrival

Time 2026-05-07 14:47
Airport Sochi International Airport (URSS)
Time Latitude Longitude Altitude Speed Heading
2026-05-07 11:37 55.97586 37.40207 642 ft 0 kts 345°
2026-05-07 12:13 55.97601 37.40200 642 ft 5 kts 345°
2026-05-07 12:14 55.97644 37.40201 642 ft 6 kts 23°
2026-05-07 12:14 55.97674 37.40274 642 ft 8 kts 73°
2026-05-07 12:14 55.97693 37.40396 642 ft 11 kts 74°
2026-05-07 12:14 55.97710 37.40527 642 ft 6 kts 105°
2026-05-07 12:15 55.97664 37.40589 642 ft 9 kts 158°
2026-05-07 12:15 55.97597 37.40663 642 ft 13 kts 123°
2026-05-07 12:15 55.97600 37.40761 642 ft 10 kts 77°
2026-05-07 12:15 55.97601 37.40886 642 ft 9 kts 110°
2026-05-07 12:16 55.97601 37.41048 642 ft 16 kts 86°
2026-05-07 12:16 55.97543 37.41195 642 ft 13 kts 127°
2026-05-07 12:16 55.97552 37.41318 642 ft 9 kts 74°
2026-05-07 12:16 55.97571 37.41444 642 ft 12 kts 75°
2026-05-07 12:17 55.97598 37.41626 642 ft 18 kts 74°
2026-05-07 12:17 55.97631 37.41848 642 ft 18 kts 74°
2026-05-07 12:17 55.97664 37.42064 642 ft 17 kts 75°
2026-05-07 12:17 55.97694 37.42269 642 ft 16 kts 75°
2026-05-07 12:18 55.97724 37.42462 642 ft 15 kts 74°
2026-05-07 12:18 55.97752 37.42650 642 ft 15 kts 75°
2026-05-07 12:18 55.97782 37.42856 642 ft 18 kts 74°
2026-05-07 12:18 55.97817 37.43086 642 ft 20 kts 75°
2026-05-07 12:19 55.97856 37.43343 642 ft 22 kts 75°
2026-05-07 12:19 55.97895 37.43608 642 ft 21 kts 75°
2026-05-07 12:19 55.97926 37.43814 642 ft 12 kts 75°
2026-05-07 12:19 55.97939 37.43901 642 ft 7 kts 75°
2026-05-07 12:20 55.97940 37.43985 642 ft 7 kts 122°
2026-05-07 12:20 55.97886 37.44052 642 ft 10 kts 157°
2026-05-07 12:20 55.97801 37.44064 642 ft 12 kts 200°
2026-05-07 12:20 55.97763 37.43931 642 ft 12 kts 255°
2026-05-07 12:21 55.97720 37.43649 642 ft 44 kts 252°
2026-05-07 12:21 55.97589 37.42766 642 ft 105 kts 255°
2026-05-07 12:21 55.97355 37.41187 788 ft 145 kts 255°
2026-05-07 12:21 55.97088 37.39391 1224 ft 164 kts 255°
2026-05-07 12:22 55.96751 37.37420 2403 ft 172 kts 245°
2026-05-07 12:22 55.96117 37.35602 3215 ft 181 kts 238°
2026-05-07 12:22 55.95402 37.33599 3885 ft 199 kts 240°
2026-05-07 12:22 55.94693 37.31401 4655 ft 212 kts 242°
2026-05-07 12:23 55.93908 37.29080 5458 ft 227 kts 232°
2026-05-07 12:23 55.92674 37.27314 6373 ft 237 kts 209°
2026-05-07 12:23 55.91024 37.26469 6913 ft 246 kts 194°
2026-05-07 12:23 55.89339 37.25991 7001 ft 245 kts 193°
2026-05-07 12:24 55.87640 37.25494 6927 ft 247 kts 193°
2026-05-07 12:24 55.85904 37.25620 6880 ft 249 kts 167°
2026-05-07 12:24 55.84336 37.27265 7098 ft 279 kts 140°
2026-05-07 12:24 55.83034 37.29814 7905 ft 278 kts 133°
2026-05-07 12:25 55.81805 37.32455 7889 ft 273 kts 141°
2026-05-07 12:25 55.80202 37.34201 7884 ft 262 kts 166°
2026-05-07 12:25 55.78349 37.34908 8304 ft 283 kts 178°
2026-05-07 12:25 55.76387 37.35161 9330 ft 285 kts 181°
2026-05-07 12:26 55.74371 37.35332 9810 ft 284 kts 182°
2026-05-07 12:26 55.72372 37.35496 9881 ft 284 kts 182°
2026-05-07 12:26 55.70399 37.35657 9896 ft 283 kts 182°
2026-05-07 12:26 55.68402 37.35820 9901 ft 284 kts 182°
2026-05-07 12:27 55.66417 37.35982 9894 ft 283 kts 182°
2026-05-07 12:27 55.64456 37.36155 9892 ft 284 kts 179°
2026-05-07 12:27 55.62510 37.37194 9888 ft 295 kts 154°
2026-05-07 12:27 55.60957 37.39693 9979 ft 320 kts 126°
2026-05-07 12:28 55.60008 37.43332 11184 ft 322 kts 112°
2026-05-07 12:28 55.59301 37.47055 12261 ft 321 kts 110°
2026-05-07 12:28 55.58610 37.50870 12791 ft 326 kts 110°
2026-05-07 12:28 55.57900 37.54768 12894 ft 327 kts 110°
2026-05-07 12:29 55.57194 37.58588 12897 ft 325 kts 112°
2026-05-07 12:29 55.56057 37.62113 12894 ft 336 kts 135°
2026-05-07 12:29 55.54187 37.64620 13055 ft 347 kts 160°
2026-05-07 12:29 55.51860 37.65947 14228 ft 342 kts 170°
2026-05-07 12:30 55.49577 37.66989 15596 ft 336 kts 171°
2026-05-07 12:30 55.47296 37.68009 16519 ft 344 kts 170°
2026-05-07 12:30 55.44961 37.69049 16870 ft 349 kts 170°
2026-05-07 12:30 55.42618 37.70095 16897 ft 348 kts 170°
2026-05-07 12:31 55.40259 37.71148 16902 ft 347 kts 170°
2026-05-07 12:31 55.37944 37.72180 16903 ft 347 kts 170°
2026-05-07 12:31 55.35600 37.73224 16904 ft 347 kts 170°
2026-05-07 12:31 55.33185 37.74590 17108 ft 368 kts 156°
2026-05-07 12:32 55.31091 37.77072 18309 ft 368 kts 145°
2026-05-07 12:32 55.29116 37.79819 19604 ft 364 kts 145°
2026-05-07 12:32 55.27139 37.82581 20516 ft 369 kts 144°
2026-05-07 12:32 55.25100 37.85425 21275 ft 378 kts 144°
2026-05-07 12:33 55.20890 37.91290 23100 ft 386 kts 144°
2026-05-07 12:33 55.18784 37.94217 23975 ft 390 kts 144°
2026-05-07 12:33 55.16628 37.97209 24768 ft 396 kts 144°
2026-05-07 12:34 55.14457 38.00219 25508 ft 402 kts 144°
2026-05-07 12:34 55.12260 38.03260 26268 ft 406 kts 144°
2026-05-07 12:34 55.10040 38.06329 26855 ft 414 kts 144°
2026-05-07 12:34 55.07767 38.09465 26929 ft 417 kts 143°
2026-05-07 12:35 55.05470 38.12633 26930 ft 414 kts 143°
2026-05-07 12:35 55.03182 38.15784 26931 ft 413 kts 143°
2026-05-07 12:35 55.00883 38.18943 26933 ft 413 kts 143°
2026-05-07 12:35 54.98622 38.22049 26937 ft 413 kts 143°
2026-05-07 12:36 54.96356 38.25178 26938 ft 419 kts 141°
2026-05-07 12:36 54.94266 38.28896 27044 ft 441 kts 130°
2026-05-07 12:36 54.92355 38.33202 27291 ft 458 kts 128°
2026-05-07 12:36 54.90407 38.37695 27561 ft 474 kts 128°
2026-05-07 12:37 54.88361 38.42414 27935 ft 487 kts 127°
2026-05-07 12:37 54.86289 38.47183 28621 ft 494 kts 127°
2026-05-07 12:37 54.84216 38.51946 29430 ft 497 kts 127°
2026-05-07 12:37 54.82123 38.56746 30475 ft 495 kts 127°
2026-05-07 12:38 54.80063 38.61463 31591 ft 489 kts 127°
2026-05-07 12:38 54.78039 38.66089 32522 ft 485 kts 128°
2026-05-07 12:38 54.75965 38.70818 33286 ft 484 kts 128°
2026-05-07 12:38 54.73938 38.75434 33953 ft 484 kts 128°
2026-05-07 12:39 54.71898 38.80068 34591 ft 484 kts 128°
2026-05-07 12:39 54.69862 38.84685 35173 ft 483 kts 128°
2026-05-07 12:39 54.67844 38.89257 35681 ft 481 kts 128°
2026-05-07 12:39 54.65812 38.93848 36146 ft 481 kts 128°
2026-05-07 12:40 54.63755 38.98486 36566 ft 481 kts 128°
2026-05-07 12:40 54.61719 39.03070 36941 ft 482 kts 128°
2026-05-07 12:40 54.57628 39.12257 36959 ft 481 kts 128°
2026-05-07 12:41 54.53541 39.21399 36964 ft 481 kts 128°
2026-05-07 12:41 54.49475 39.30462 36966 ft 480 kts 128°
2026-05-07 12:42 54.45383 39.39549 36963 ft 480 kts 128°
2026-05-07 12:42 54.41286 39.48615 36962 ft 480 kts 128°
2026-05-07 12:43 54.37188 39.57650 36960 ft 479 kts 128°
2026-05-07 12:43 54.33053 39.66734 36958 ft 479 kts 129°
2026-05-07 12:44 54.28907 39.75809 36961 ft 480 kts 129°
2026-05-07 12:44 54.24806 39.84756 36963 ft 479 kts 129°
2026-05-07 12:45 54.20688 39.93704 36959 ft 479 kts 129°
2026-05-07 12:45 54.16564 40.02637 36967 ft 480 kts 129°
2026-05-07 12:46 54.12599 40.11774 36953 ft 479 kts 120°
2026-05-07 12:46 54.10118 40.22230 36975 ft 479 kts 106°
2026-05-07 12:47 54.08230 40.33204 36964 ft 479 kts 105°
2026-05-07 12:47 54.06346 40.44080 36962 ft 479 kts 106°
2026-05-07 12:48 54.04444 40.54959 36966 ft 479 kts 106°
2026-05-07 12:48 54.02525 40.65848 36970 ft 479 kts 107°
2026-05-07 12:49 54.00589 40.76757 36964 ft 479 kts 107°
2026-05-07 12:49 53.98655 40.87584 36958 ft 477 kts 107°
2026-05-07 12:50 53.96732 40.98287 36953 ft 477 kts 107°
2026-05-07 12:50 53.94839 41.09052 36952 ft 477 kts 105°
2026-05-07 12:51 53.93069 41.19955 36953 ft 478 kts 105°
2026-05-07 12:51 53.91289 41.30818 36962 ft 477 kts 105°
2026-05-07 12:52 53.89494 41.41676 36953 ft 476 kts 105°
2026-05-07 12:52 53.87695 41.52474 36957 ft 476 kts 105°
2026-05-07 12:53 53.85893 41.63210 36953 ft 476 kts 105°
2026-05-07 12:53 53.84057 41.74081 36946 ft 475 kts 106°
2026-05-07 12:54 53.82219 41.84856 36959 ft 475 kts 106°
2026-05-07 12:54 53.80389 41.95497 36948 ft 475 kts 106°
2026-05-07 12:55 53.78545 42.06164 36970 ft 474 kts 106°
2026-05-07 12:55 53.76685 42.16854 36974 ft 474 kts 106°
2026-05-07 12:56 53.74810 42.27567 36967 ft 473 kts 106°
2026-05-07 12:56 53.72944 42.38167 36967 ft 474 kts 106°
2026-05-07 12:57 53.71062 42.48768 36966 ft 473 kts 108°
2026-05-07 12:57 53.68141 42.58630 36966 ft 472 kts 126°
2026-05-07 12:58 53.63533 42.66560 36966 ft 472 kts 144°
2026-05-07 12:58 53.57758 42.71679 36967 ft 470 kts 162°
2026-05-07 12:59 53.51500 42.74653 36973 ft 469 kts 166°
2026-05-07 12:59 53.45190 42.77465 36972 ft 470 kts 166°
2026-05-07 13:00 53.38856 42.80251 36968 ft 470 kts 166°
2026-05-07 13:00 53.32550 42.83002 36965 ft 470 kts 166°
2026-05-07 13:01 53.26214 42.85751 36964 ft 470 kts 166°
2026-05-07 13:01 53.19912 42.88473 36964 ft 469 kts 166°
2026-05-07 13:02 53.13585 42.91195 36968 ft 469 kts 166°
2026-05-07 13:02 53.07268 42.93904 36971 ft 469 kts 166°
2026-05-07 13:03 53.00928 42.96613 36964 ft 470 kts 166°
2026-05-07 13:03 52.94622 42.99300 36973 ft 469 kts 166°
2026-05-07 13:04 52.88246 43.02008 36971 ft 470 kts 166°
2026-05-07 13:04 52.81880 43.04704 36973 ft 470 kts 166°
2026-05-07 13:05 52.75525 43.07386 36973 ft 470 kts 166°
2026-05-07 13:05 52.69192 43.10052 36971 ft 469 kts 166°
2026-05-07 13:06 52.62885 43.12698 36972 ft 470 kts 166°
2026-05-07 13:06 52.56542 43.15352 36966 ft 470 kts 166°
2026-05-07 13:07 52.50236 43.17983 36967 ft 470 kts 166°
2026-05-07 13:07 52.43878 43.20627 36964 ft 470 kts 166°
2026-05-07 13:08 52.37558 43.23248 36960 ft 470 kts 166°
2026-05-07 13:08 52.31226 43.25865 36958 ft 470 kts 165°
2026-05-07 13:09 52.24838 43.28499 36951 ft 470 kts 165°
2026-05-07 13:09 52.18520 43.31095 36953 ft 470 kts 165°
2026-05-07 13:10 52.12190 43.33689 36952 ft 471 kts 165°
2026-05-07 13:10 52.05834 43.36286 36954 ft 469 kts 165°
2026-05-07 13:11 51.99519 43.38859 36950 ft 469 kts 165°
2026-05-07 13:11 51.93171 43.41437 36946 ft 470 kts 165°
2026-05-07 13:12 51.86873 43.43988 36950 ft 470 kts 165°
2026-05-07 13:12 51.80504 43.46561 36954 ft 469 kts 165°
2026-05-07 13:13 51.74118 43.49132 36949 ft 470 kts 165°
2026-05-07 13:13 51.67742 43.51692 36956 ft 469 kts 165°
2026-05-07 13:14 51.61384 43.54237 36954 ft 469 kts 165°
2026-05-07 13:14 51.54998 43.56786 36946 ft 470 kts 165°
2026-05-07 13:15 51.48666 43.59307 36944 ft 469 kts 165°
2026-05-07 13:15 51.42270 43.61846 36953 ft 471 kts 165°
2026-05-07 13:16 51.35928 43.64355 36944 ft 470 kts 165°
2026-05-07 13:16 51.29531 43.66880 36950 ft 471 kts 166°
2026-05-07 13:17 51.23159 43.69387 36952 ft 471 kts 166°
2026-05-07 13:17 51.16755 43.71900 36944 ft 470 kts 166°
2026-05-07 13:18 51.10364 43.74401 36944 ft 470 kts 166°
2026-05-07 13:18 51.03993 43.76886 36939 ft 470 kts 166°
2026-05-07 13:19 50.97622 43.79365 36939 ft 470 kts 166°
2026-05-07 13:19 50.91267 43.81830 36928 ft 470 kts 166°
2026-05-07 13:20 50.84829 43.84321 36926 ft 470 kts 166°
2026-05-07 13:20 50.78476 43.86772 36939 ft 470 kts 166°
2026-05-07 13:21 50.72056 43.89241 36925 ft 471 kts 166°
2026-05-07 13:21 50.65684 43.91685 36924 ft 470 kts 166°
2026-05-07 13:22 50.59339 43.94112 36922 ft 468 kts 165°
2026-05-07 13:22 50.52986 43.96536 36918 ft 469 kts 166°
2026-05-07 13:23 50.46656 43.98944 36928 ft 468 kts 166°
2026-05-07 13:23 50.40279 44.01363 36925 ft 468 kts 166°
2026-05-07 13:24 50.33925 44.03767 36933 ft 469 kts 166°
2026-05-07 13:24 50.27528 44.06180 36930 ft 468 kts 166°
2026-05-07 13:25 50.21202 44.08560 36925 ft 467 kts 165°
2026-05-07 13:25 50.14865 44.10938 36934 ft 467 kts 166°
2026-05-07 13:26 50.08570 44.13294 36936 ft 466 kts 166°
2026-05-07 13:26 50.02203 44.15670 36919 ft 467 kts 166°
2026-05-07 13:27 49.95871 44.18026 36947 ft 467 kts 165°
2026-05-07 13:27 49.89493 44.20393 36937 ft 468 kts 166°
2026-05-07 13:28 49.83126 44.22750 36926 ft 469 kts 165°
2026-05-07 13:28 49.76775 44.25094 36949 ft 470 kts 166°
2026-05-07 13:29 49.70395 44.27443 36930 ft 472 kts 166°
2026-05-07 13:29 49.63957 44.29807 36931 ft 471 kts 165°
2026-05-07 13:30 49.57507 44.32200 36914 ft 474 kts 163°
2026-05-07 13:30 49.51369 44.35839 36921 ft 476 kts 156°
2026-05-07 13:31 49.45253 44.39762 36925 ft 474 kts 156°
2026-05-07 13:31 49.39109 44.43680 36921 ft 480 kts 156°
2026-05-07 13:32 49.32947 44.47591 36917 ft 478 kts 156°
2026-05-07 13:32 49.26793 44.51482 36917 ft 479 kts 156°
2026-05-07 13:33 49.20640 44.55360 36919 ft 479 kts 156°
2026-05-07 13:33 49.14474 44.59234 36919 ft 480 kts 157°
2026-05-07 13:34 49.05147 44.65073 36917 ft 482 kts 158°
2026-05-07 13:35 48.98958 44.68935 36910 ft 479 kts 158°
2026-05-07 13:35 48.92746 44.72800 36919 ft 481 kts 157°
2026-05-07 13:36 48.86567 44.76635 36920 ft 479 kts 157°
2026-05-07 13:36 48.80521 44.81114 36912 ft 479 kts 150°
2026-05-07 13:37 48.74725 44.86115 36908 ft 478 kts 149°
2026-05-07 13:37 48.68926 44.91103 36913 ft 478 kts 150°
2026-05-07 13:38 48.63154 44.96050 36903 ft 478 kts 150°
2026-05-07 13:38 48.57351 45.01007 36902 ft 480 kts 150°
2026-05-07 13:39 48.51498 45.05851 36907 ft 480 kts 155°
2026-05-07 13:39 48.45080 45.08551 36918 ft 480 kts 171°
2026-05-07 13:40 48.38447 45.09965 36912 ft 481 kts 172°
2026-05-07 13:40 48.31866 45.11347 36919 ft 481 kts 172°
2026-05-07 13:41 48.25235 45.12735 36918 ft 479 kts 172°
2026-05-07 13:41 48.18649 45.14111 36911 ft 482 kts 172°
2026-05-07 13:42 48.12036 45.15488 36908 ft 479 kts 172°
2026-05-07 13:42 48.05393 45.16868 36923 ft 481 kts 172°
2026-05-07 13:43 47.98766 45.18241 36913 ft 480 kts 172°
2026-05-07 13:43 47.92166 45.19605 36944 ft 482 kts 172°
2026-05-07 13:44 47.85500 45.20979 36927 ft 481 kts 172°
2026-05-07 13:44 47.78868 45.22343 36934 ft 483 kts 172°
2026-05-07 13:45 47.72226 45.23705 36930 ft 481 kts 172°
2026-05-07 13:45 47.65589 45.25062 36940 ft 483 kts 172°
2026-05-07 13:46 47.58958 45.26415 36953 ft 483 kts 172°
2026-05-07 13:46 47.52281 45.27770 36938 ft 483 kts 173°
2026-05-07 13:47 47.45600 45.27452 36940 ft 485 kts 191°
2026-05-07 13:47 47.39287 45.24060 36969 ft 484 kts 210°
2026-05-07 13:48 47.33995 45.17961 36962 ft 481 kts 226°
2026-05-07 13:48 47.29346 45.10883 36950 ft 482 kts 227°
2026-05-07 13:49 47.24718 45.03824 36965 ft 482 kts 227°
2026-05-07 13:49 47.20032 44.96697 36976 ft 483 kts 227°
2026-05-07 13:50 47.15355 44.89601 36986 ft 484 kts 227°
2026-05-07 13:50 47.10678 44.82525 36999 ft 484 kts 226°
2026-05-07 13:51 47.05981 44.75440 36978 ft 484 kts 226°
2026-05-07 13:51 47.01281 44.68367 37001 ft 485 kts 226°
2026-05-07 13:52 46.96571 44.61299 36988 ft 485 kts 226°
2026-05-07 13:52 46.91857 44.54243 37000 ft 486 kts 226°
2026-05-07 13:53 46.87134 44.47194 36999 ft 484 kts 226°
2026-05-07 13:53 46.82393 44.40136 36998 ft 487 kts 226°
2026-05-07 13:54 46.77655 44.33102 36998 ft 485 kts 226°
2026-05-07 13:54 46.72910 44.26076 37001 ft 486 kts 226°
2026-05-07 13:55 46.68144 44.19038 37005 ft 486 kts 225°
2026-05-07 13:55 46.63378 44.12018 37009 ft 489 kts 225°
2026-05-07 13:56 46.58648 44.05071 37013 ft 486 kts 225°
2026-05-07 13:56 46.53844 43.98033 37023 ft 488 kts 225°
2026-05-07 13:57 46.49088 43.91083 37026 ft 486 kts 225°
2026-05-07 13:57 46.44315 43.84128 37031 ft 487 kts 225°
2026-05-07 13:58 46.39512 43.77148 37034 ft 486 kts 225°
2026-05-07 13:58 46.34736 43.70223 37028 ft 486 kts 225°
2026-05-07 13:59 46.29960 43.63319 37035 ft 486 kts 225°
2026-05-07 13:59 46.25205 43.56462 37025 ft 485 kts 225°
2026-05-07 14:00 46.20431 43.49596 37039 ft 487 kts 225°
2026-05-07 14:00 46.15614 43.42686 37037 ft 485 kts 225°
2026-05-07 14:01 46.10844 43.35860 37034 ft 484 kts 224°
2026-05-07 14:01 46.06034 43.28997 37059 ft 485 kts 224°
2026-05-07 14:02 46.01244 43.22179 37041 ft 484 kts 224°
2026-05-07 14:02 45.96460 43.15388 37058 ft 486 kts 224°
2026-05-07 14:03 45.91660 43.08589 37063 ft 485 kts 224°
2026-05-07 14:03 45.86842 43.01785 37060 ft 485 kts 224°
2026-05-07 14:04 45.82033 42.95010 37061 ft 486 kts 224°
2026-05-07 14:04 45.77195 42.88212 37070 ft 485 kts 224°
2026-05-07 14:05 45.72386 42.81472 37064 ft 486 kts 224°
2026-05-07 14:05 45.67546 42.74706 37074 ft 486 kts 224°
2026-05-07 14:06 45.62717 42.67972 37074 ft 486 kts 224°
2026-05-07 14:06 45.57885 42.61251 37082 ft 487 kts 224°
2026-05-07 14:07 45.53030 42.54515 37078 ft 487 kts 224°
2026-05-07 14:07 45.48193 42.47822 37076 ft 486 kts 224°
2026-05-07 14:08 45.43320 42.41096 37083 ft 487 kts 224°
2026-05-07 14:08 45.38471 42.34420 37093 ft 486 kts 223°
2026-05-07 14:09 45.33586 42.27711 37087 ft 486 kts 223°
2026-05-07 14:09 45.28722 42.21048 37106 ft 488 kts 223°
2026-05-07 14:10 45.23831 42.14366 37103 ft 488 kts 223°
2026-05-07 14:10 45.18954 42.07717 37226 ft 487 kts 223°
2026-05-07 14:10 45.16515 42.04400 36958 ft 486 kts 223°
2026-05-07 14:11 45.14091 42.01107 37241 ft 485 kts 223°
2026-05-07 14:11 45.11632 41.97769 37135 ft 490 kts 223°
2026-05-07 14:11 45.09163 41.94424 37122 ft 486 kts 223°
2026-05-07 14:12 45.04311 41.87860 37117 ft 487 kts 223°
2026-05-07 14:12 44.99408 41.81243 37114 ft 486 kts 223°
2026-05-07 14:13 44.94520 41.74664 37124 ft 487 kts 223°
2026-05-07 14:13 44.89622 41.68087 37120 ft 486 kts 224°
2026-05-07 14:14 44.84678 41.61466 37121 ft 487 kts 224°
2026-05-07 14:14 44.79792 41.54937 37128 ft 486 kts 224°
2026-05-07 14:15 44.74873 41.48382 37128 ft 485 kts 224°
2026-05-07 14:15 44.69997 41.41900 37127 ft 485 kts 224°
2026-05-07 14:16 44.65085 41.35385 37143 ft 486 kts 224°
2026-05-07 14:16 44.60150 41.28856 37136 ft 485 kts 223°
2026-05-07 14:17 44.55241 41.22377 37133 ft 486 kts 223°
2026-05-07 14:17 44.50294 41.15865 37145 ft 486 kts 223°
2026-05-07 14:18 44.45344 41.09365 37144 ft 485 kts 223°
2026-05-07 14:18 44.40451 41.02955 37151 ft 485 kts 223°
2026-05-07 14:19 44.35511 40.96499 37147 ft 486 kts 223°
2026-05-07 14:19 44.30593 40.90087 37163 ft 483 kts 223°
2026-05-07 14:19 44.28139 40.86893 36790 ft 479 kts 223°
2026-05-07 14:20 44.25701 40.83723 35926 ft 489 kts 223°
2026-05-07 14:20 44.23172 40.80441 35020 ft 498 kts 223°
2026-05-07 14:20 44.20642 40.77160 34162 ft 506 kts 222°
2026-05-07 14:20 44.18049 40.73803 33238 ft 514 kts 222°
2026-05-07 14:21 44.15444 40.70434 32202 ft 521 kts 222°
2026-05-07 14:21 44.12779 40.66992 31192 ft 526 kts 222°
2026-05-07 14:21 44.10098 40.63533 30157 ft 519 kts 222°
2026-05-07 14:21 44.07528 40.60220 29683 ft 497 kts 222°
2026-05-07 14:22 44.05041 40.57017 29281 ft 476 kts 222°
2026-05-07 14:22 44.02671 40.53970 28831 ft 469 kts 222°
2026-05-07 14:22 44.00221 40.50826 28224 ft 487 kts 222°
2026-05-07 14:22 43.97738 40.47644 27554 ft 485 kts 222°
2026-05-07 14:23 43.95252 40.44460 26938 ft 480 kts 222°
2026-05-07 14:23 43.92815 40.41343 26343 ft 476 kts 222°
2026-05-07 14:23 43.90370 40.38219 25722 ft 471 kts 222°
2026-05-07 14:23 43.87942 40.35121 25108 ft 466 kts 222°
2026-05-07 14:24 43.85578 40.32106 24501 ft 462 kts 222°
2026-05-07 14:24 43.83237 40.29119 23889 ft 457 kts 222°
2026-05-07 14:24 43.80908 40.26158 23296 ft 452 kts 222°
2026-05-07 14:24 43.78596 40.23223 22697 ft 447 kts 222°
2026-05-07 14:25 43.76334 40.20356 22106 ft 442 kts 222°
2026-05-07 14:25 43.74083 40.17505 21522 ft 437 kts 222°
2026-05-07 14:25 43.71841 40.14669 20926 ft 433 kts 222°
2026-05-07 14:25 43.69537 40.12029 20329 ft 428 kts 214°
2026-05-07 14:26 43.67011 40.09994 19769 ft 422 kts 206°
2026-05-07 14:26 43.64386 40.08247 19268 ft 416 kts 205°
2026-05-07 14:26 43.61783 40.06572 19012 ft 403 kts 204°
2026-05-07 14:26 43.59258 40.05183 18982 ft 385 kts 200°
2026-05-07 14:27 43.56669 40.03867 18987 ft 402 kts 199°
2026-05-07 14:27 43.54044 40.02536 18754 ft 408 kts 200°
2026-05-07 14:27 43.51365 40.01180 18205 ft 407 kts 200°
2026-05-07 14:27 43.48698 39.99831 17602 ft 404 kts 200°
2026-05-07 14:28 43.46073 39.98504 17025 ft 401 kts 200°
2026-05-07 14:28 43.43476 39.97193 16469 ft 398 kts 200°
2026-05-07 14:28 43.40885 39.95886 15898 ft 395 kts 200°
2026-05-07 14:28 43.38325 39.94596 15332 ft 391 kts 200°
2026-05-07 14:29 43.35755 39.93301 14770 ft 388 kts 200°
2026-05-07 14:29 43.33228 39.92030 14202 ft 385 kts 200°
2026-05-07 14:29 43.30738 39.90780 13634 ft 383 kts 200°
2026-05-07 14:29 43.28236 39.89523 13080 ft 379 kts 200°
2026-05-07 14:30 43.25774 39.88288 12520 ft 373 kts 200°
2026-05-07 14:30 43.23381 39.87088 12019 ft 365 kts 200°
2026-05-07 14:30 43.21035 39.85913 11522 ft 358 kts 200°
2026-05-07 14:30 43.18724 39.84757 11064 ft 350 kts 200°
2026-05-07 14:31 43.16460 39.83625 10931 ft 334 kts 200°
2026-05-07 14:31 43.14354 39.82573 10884 ft 316 kts 200°
2026-05-07 14:31 43.12324 39.81559 10808 ft 302 kts 200°
2026-05-07 14:31 43.10395 39.80597 10674 ft 291 kts 200°
2026-05-07 14:32 43.08522 39.79664 10506 ft 281 kts 200°
2026-05-07 14:32 43.06856 39.78392 10383 ft 271 kts 223°
2026-05-07 14:32 43.05774 39.76315 10258 ft 278 kts 248°
2026-05-07 14:32 43.05424 39.73702 9897 ft 279 kts 275°
2026-05-07 14:33 43.05934 39.71216 9482 ft 278 kts 301°
2026-05-07 14:33 43.07206 39.69316 9271 ft 266 kts 328°
2026-05-07 14:33 43.08822 39.68226 9256 ft 253 kts 333°
2026-05-07 14:33 43.10215 39.66606 9246 ft 270 kts 307°
2026-05-07 14:34 43.10957 39.64247 9237 ft 275 kts 283°
2026-05-07 14:34 43.11286 39.61646 9244 ft 277 kts 280°
2026-05-07 14:34 43.11579 39.59037 9224 ft 277 kts 280°
2026-05-07 14:34 43.11867 39.56450 9228 ft 277 kts 280°
2026-05-07 14:35 43.12158 39.53826 9254 ft 277 kts 280°
2026-05-07 14:35 43.12447 39.51219 9224 ft 277 kts 280°
2026-05-07 14:35 43.12732 39.48634 9008 ft 277 kts 280°
2026-05-07 14:35 43.13018 39.46031 8676 ft 275 kts 280°
2026-05-07 14:36 43.13301 39.43456 8355 ft 272 kts 280°
2026-05-07 14:36 43.13582 39.40891 8036 ft 271 kts 280°
2026-05-07 14:36 43.13867 39.38342 7715 ft 269 kts 283°
2026-05-07 14:36 43.14574 39.36053 7374 ft 264 kts 308°
2026-05-07 14:37 43.15961 39.34460 7038 ft 259 kts 335°
2026-05-07 14:37 43.19405 39.34476 6441 ft 254 kts 26°
2026-05-07 14:37 43.20892 39.35746 6045 ft 256 kts 34°
2026-05-07 14:38 43.22335 39.37177 5657 ft 255 kts 36°
2026-05-07 14:38 43.23758 39.38612 5329 ft 252 kts 36°
2026-05-07 14:38 43.25161 39.40025 5037 ft 249 kts 35°
2026-05-07 14:38 43.26376 39.41679 4730 ft 251 kts 55°
2026-05-07 14:39 43.27214 39.43779 4441 ft 251 kts 62°
2026-05-07 14:39 43.27960 39.45923 4137 ft 250 kts 63°
2026-05-07 14:39 43.28689 39.48076 3854 ft 249 kts 64°
2026-05-07 14:39 43.29365 39.50248 3566 ft 248 kts 65°
2026-05-07 14:40 43.30055 39.52418 3262 ft 246 kts 64°
2026-05-07 14:40 43.30804 39.54518 2974 ft 244 kts 60°
2026-05-07 14:40 43.31588 39.56587 2814 ft 242 kts 62°
2026-05-07 14:40 43.32329 39.58684 2775 ft 244 kts 63°
2026-05-07 14:41 43.33046 39.60809 2711 ft 245 kts 64°
2026-05-07 14:41 43.33734 39.62917 2632 ft 244 kts 63°
2026-05-07 14:41 43.34471 39.65010 2547 ft 246 kts 63°
2026-05-07 14:41 43.35206 39.67133 2458 ft 245 kts 64°
2026-05-07 14:42 43.35926 39.69245 2370 ft 233 kts 64°
2026-05-07 14:42 43.36566 39.71122 2331 ft 201 kts 63°
2026-05-07 14:42 43.37133 39.72780 2317 ft 182 kts 63°
2026-05-07 14:42 43.37655 39.74319 2311 ft 176 kts 65°
2026-05-07 14:43 43.38147 39.75846 2311 ft 173 kts 64°
2026-05-07 14:43 43.38670 39.77340 2295 ft 173 kts 63°
2026-05-07 14:43 43.39184 39.78798 2093 ft 161 kts 63°
2026-05-07 14:43 43.39650 39.80131 1904 ft 151 kts 62°
2026-05-07 14:44 43.40093 39.81407 1720 ft 146 kts 63°
2026-05-07 14:44 43.40529 39.82669 1539 ft 145 kts 63°
2026-05-07 14:44 43.40960 39.83915 1358 ft 146 kts 63°
2026-05-07 14:44 43.41393 39.85173 1172 ft 146 kts 63°
2026-05-07 14:45 43.41832 39.86446 982 ft 147 kts 63°
2026-05-07 14:45 43.42272 39.87725 792 ft 147 kts 63°
2026-05-07 14:45 43.42707 39.88988 602 ft 146 kts 63°
2026-05-07 14:45 43.43140 39.90247 414 ft 146 kts 64°
2026-05-07 14:46 43.43566 39.91512 250 ft 147 kts 63°
2026-05-07 14:46 43.44014 39.92782 63 ft 146 kts 63°
2026-05-07 14:46 43.44414 39.93950 54 ft 112 kts 64°
2026-05-07 14:46 43.44666 39.94690 60 ft 59 kts 64°
2026-05-07 14:47 43.44759 39.94956 62 ft 15 kts 57°
2026-05-07 14:47 43.44848 39.94985 61 ft 9 kts 327°
2026-05-07 14:47 43.44857 39.94897 60 ft 9 kts 248°
2026-05-07 14:47 43.44828 39.94807 59 ft 10 kts 246°
2026-05-07 14:48 43.44796 39.94708 58 ft 12 kts 244°
2026-05-07 14:48 43.44765 39.94617 57 ft 7 kts 245°
2026-05-07 14:48 43.44767 39.94555 58 ft 5 kts 307°
2026-05-07 14:48 43.44796 39.94531 59 ft 4 kts 334°
2026-05-07 14:49 43.44825 39.94512 59 ft 4 kts 335°
2026-05-07 14:49 43.44843 39.94500 60 ft 0 kts 334°
2026-05-07 14:53 43.44843 39.94501 60 ft 0 kts 334°